DW4725 Weather Reports


time (UTC)temp
C
wind
direction
speed
KPH
gust
KPH
rain 1hr
cm
rain 24hr
cm
rain mn
cm
humidity
%
barometer
mb
20260503055128 11 37 1.6 9.7 0.00 0.00 0.00 81 1016.5
20260503054921 11 244 1.6 9.7 0.00 0.00 0.00 80 1016.8
20260503054714 11 240 1.6 9.7 0.00 0.00 0.00 81 1016.8
20260503054504 11 231 0.0 9.7 0.00 0.00 0.00 80 1016.5
20260503054254 11 208 1.6 9.7 0.00 0.00 0.00 81 1016.6
20260503054050 11 210 1.6 9.7 0.00 0.00 0.00 81 1016.6
20260503053529 11 272 3.2 9.7 0.00 0.00 0.00 81 1016.5
20260503053321 11 85 3.2 9.7 0.00 0.00 0.00 81 1016.4
20260503053113 11 101 1.6 9.7 0.00 0.00 0.00 81 1016.3
20260503052905 11 133 0.0 8.0 0.00 0.00 0.00 80 1016.2
20260503052337 11 83 0.0 0.0 0.00 0.00 0.00 78 1016.2
20260503052138 11 112 0.0 1.6 0.00 0.00 0.00 78 1016.3
20260503051938 11 102 0.0 0.0 0.00 0.00 0.00 79 1016.4
20260503051738 11 102 0.0 0.0 0.00 0.00 0.00 80 1016.4
20260503051532 11 102 0.0 0.0 0.00 0.00 0.00 79 1016.4
20260503051332 11 102 0.0 0.0 0.00 0.00 0.00 79 1016.4
20260503051126 11 102 0.0 0.0 0.00 0.00 0.00 79 1016.4
20260503050608 11 102 0.0 1.6 0.00 0.00 0.00 79 1016.2
20260503050357 11 102 0.0 1.6 0.00 0.00 0.00 79 1016.2
20260503050148 11 87 0.0 1.6 0.00 0.00 0.00 79 1016.2
20260503045948 11 227 0.0 0.0 0.00 0.00 0.00 79 1016.3
20260503045743 11 227 0.0 0.0 0.00 0.00 0.00 79 1016.2
20260503045536 11 115 0.0 0.0 0.00 0.00 0.00 79 1016.3
20260503045335 11 116 0.0 3.2 0.00 0.00 0.00 79 1016.2
20260503045126 11 116 0.0 3.2 0.00 0.00 0.00 79 1016.2
20260503044924 11 116 0.0 3.2 0.00 0.00 0.00 78 1016.3
20260503044726 11 124 0.0 3.2 0.00 0.00 0.00 78 1016.4
20260503044157 11 262 0.0 0.0 0.00 0.00 0.00 78 1016.3
20260503043949 11 262 0.0 0.0 0.00 0.00 0.00 78 1016.3
20260503043742 11 262 0.0 0.0 0.00 0.00 0.00 78 1016.4
20260503043536 11 262 0.0 0.0 0.00 0.00 0.00 78 1016.4
20260503043337 11 262 0.0 0.0 0.00 0.00 0.00 78 1016.4
20260503043128 11 262 0.0 0.0 0.00 0.00 0.00 78 1016.4
20260503042923 11 262 0.0 0.0 0.00 0.00 0.00 78 1016.4
20260503042716 11 262 0.0 4.8 0.00 0.00 0.00 78 1016.4
20260503042510 11 309 0.0 4.8 0.00 0.00 0.00 77 1016.3
20260503042311 12 108 0.0 4.8 0.00 0.00 0.00 76 1016.4
20260503042110 12 124 0.0 4.8 0.00 0.00 0.00 76 1016.4
20260503041909 12 214 0.0 1.6 0.00 0.00 0.00 76 1016.3
20260503041700 12 225 0.0 0.0 0.00 0.00 0.00 76 1016.2
20260503041137 12 210 0.0 3.2 0.00 0.00 0.00 76 1016.3
20260503040930 12 210 0.0 3.2 0.00 0.00 0.00 76 1016.3
20260503040729 12 213 0.0 3.2 0.00 0.00 0.00 76 1016.3
20260503040523 12 222 0.0 3.2 0.00 0.00 0.00 77 1016.4
20260503035959 12 243 1.6 3.2 0.00 0.00 0.00 77 1016.4
20260503035754 12 236 1.6 8.0 0.00 0.00 0.00 77 1016.4
20260503035555 12 200 1.6 8.0 0.00 0.00 0.00 77 1016.5
20260503035348 12 185 0.0 8.0 0.00 0.00 0.00 77 1016.4
20260503035144 12 233 0.0 8.0 0.00 0.00 0.00 77 1016.5
20260503034943 11 207 1.6 8.0 0.00 0.00 0.00 77 1016.4
20260503034738 11 215 1.6 8.0 0.00 0.00 0.00 77 1016.5
20260503034531 12 219 1.6 8.0 0.00 0.00 0.00 76 1016.5
20260503034327 12 238 1.6 8.0 0.00 0.00 0.00 76 1016.5
20260503034123 12 239 1.6 8.0 0.00 0.00 0.00 75 1016.6
20260503033913 12 238 0.0 6.4 0.00 0.00 0.00 75 1016.6
20260503033714 12 228 0.0 6.4 0.00 0.00 0.00 75 1016.5
20260503033507 12 233 0.0 6.4 0.00 0.00 0.00 75 1016.5
20260503033307 12 176 0.0 6.4 0.00 0.00 0.00 75 1016.4
20260503033103 12 216 0.0 6.4 0.00 0.00 0.00 75 1016.4
20260503032859 12 198 0.0 6.4 0.00 0.00 0.00 75 1016.4
20260503032650 12 206 0.0 6.4 0.00 0.00 0.00 75 1016.5
20260503032448 12 203 1.6 6.4 0.00 0.00 0.00 75 1016.4
20260503032239 12 209 1.6 6.4 0.00 0.00 0.00 75 1016.4
20260503032038 12 210 1.6 6.4 0.00 0.00 0.00 75 1016.4
20260503031837 12 214 1.6 6.4 0.00 0.00 0.00 75 1016.4
20260503031627 12 186 1.6 6.4 0.00 0.00 0.00 75 1016.4
20260503031424 12 197 1.6 6.4 0.00 0.00 0.00 75 1016.5
20260503031224 12 202 0.0 6.4 0.00 0.00 0.00 75 1016.4
20260503031023 12 210 0.0 6.4 0.00 0.00 0.00 75 1016.4
20260503030815 11 200 0.0 6.4 0.00 0.00 0.00 75 1016.3
20260503030605 11 229 0.0 6.4 0.00 0.00 0.00 75 1016.5
20260503030356 11 231 1.6 6.4 0.00 0.00 0.00 75 1016.4
20260503025833 12 238 1.6 6.4 0.00 0.00 0.00 75 1016.4
20260503025630 11 240 1.6 6.4 0.00 0.00 0.00 76 1016.5
20260503025421 11 221 3.2 11.3 0.00 0.00 0.00 75 1016.5
20260503025216 11 239 3.2 11.3 0.00 0.00 0.00 75 1016.5
20260503025012 11 236 3.2 11.3 0.00 0.00 0.00 74 1016.4
20260503024807 12 224 4.8 11.3 0.00 0.00 0.00 74 1016.4
20260503024241 11 248 4.8 11.3 0.00 0.00 0.00 74 1016.3
20260503023723 11 255 3.2 11.3 0.00 0.00 0.00 75 1016.5
20260503023516 11 224 3.2 8.0 0.00 0.00 0.00 75 1016.5
20260503023317 11 217 3.2 8.0 0.00 0.00 0.00 75 1016.5
20260503023112 11 232 1.6 8.0 0.00 0.00 0.00 75 1016.5
20260503022902 11 225 1.6 8.0 0.00 0.00 0.00 75 1016.5
20260503022700 11 245 1.6 8.0 0.00 0.00 0.00 75 1016.5
20260503022459 11 196 1.6 8.0 0.00 0.00 0.00 76 1016.5
20260503022252 11 233 1.6 9.7 0.00 0.00 0.00 76 1016.5
20260503021727 11 269 1.6 9.7 0.00 0.00 0.00 76 1016.6
20260503021519 11 243 1.6 9.7 0.00 0.00 0.00 76 1016.7
20260503021313 11 252 3.2 14.5 0.00 0.00 0.00 76 1016.7
20260503021103 11 249 4.8 14.5 0.00 0.00 0.00 76 1016.8
20260503020858 11 236 4.8 14.5 0.00 0.00 0.00 76 1016.7
20260503020331 11 244 6.4 14.5 0.00 0.00 0.00 76 1016.7
20260503020124 11 217 6.4 14.5 0.00 0.00 0.00 76 1016.7
20260503015916 11 243 6.4 14.5 0.00 0.00 0.00 75 1016.7
20260503015715 11 236 8.0 14.5 0.00 0.00 0.00 75 1016.7
20260503015505 11 239 6.4 14.5 0.00 0.00 0.00 75 1016.6
20260503015254 11 245 6.4 12.9 0.00 0.00 0.00 75 1016.8
20260503015046 11 245 6.4 12.9 0.00 0.00 0.00 76 1016.8
20260503014841 11 299 6.4 12.9 0.00 0.00 0.00 76 1016.7
20260503014321 11 239 6.4 12.9 0.00 0.00 0.00 76 1016.7
20260503014114 11 238 8.0 12.9 0.00 0.00 0.00 75 1016.7
20260503013915 11 240 8.0 12.9 0.00 0.00 0.00 75 1016.7
20260503013346 11 232 8.0 11.3 0.00 0.00 0.00 75 1016.8
20260503013140 11 249 8.0 11.3 0.00 0.00 0.00 75 1016.8
20260503012300 12 238 3.2 11.3 0.00 0.00 0.00 74 1016.8
20260503012051 12 241 1.6 11.3 0.00 0.00 0.00 74 1016.9
20260503011850 12 235 1.6 11.3 0.00 0.00 0.00 74 1016.8
20260503011644 12 229 0.0 6.4 0.00 0.00 0.00 74 1016.9
20260503011443 12 240 0.0 4.8 0.00 0.00 0.00 74 1016.9
20260503011244 12 252 0.0 1.6 0.00 0.00 0.00 73 1017.0
20260503011039 12 240 0.0 0.0 0.00 0.00 0.00 74 1016.9
20260503010828 12 229 0.0 6.4 0.00 0.00 0.00 73 1016.9
20260503010629 12 234 1.6 6.4 0.00 0.00 0.00 73 1016.9
20260503010419 12 192 1.6 6.4 0.00 0.00 0.00 73 1017.0
20260503005859 12 217 1.6 4.8 0.00 0.00 0.00 73 1017.0
20260503005652 12 226 1.6 4.8 0.00 0.00 0.00 73 1017.0
20260503005450 12 230 1.6 4.8 0.00 0.00 0.00 74 1017.0
20260503005248 12 240 1.6 4.8 0.00 0.00 0.00 74 1017.0
20260503005042 12 256 0.0 8.0 0.00 0.00 0.00 74 1017.0
20260503004842 12 231 0.0 8.0 0.00 0.00 0.00 74 1017.1
20260503004643 12 225 1.6 8.0 0.00 0.00 0.00 74 1017.1
20260503004441 12 250 1.6 8.0 0.00 0.00 0.00 74 1017.0
20260503004239 12 233 3.2 8.0 0.00 0.00 0.00 75 1017.1
20260503004032 12 234 3.2 8.0 0.00 0.00 0.00 75 1017.1
20260503003829 12 233 3.2 8.0 0.00 0.00 0.00 75 1017.2
20260503002951 12 207 1.6 9.7 0.00 0.00 0.00 75 1017.3
20260503002749 12 210 1.6 9.7 0.00 0.00 0.00 74 1017.4
20260503002550 12 239 3.2 9.7 0.00 0.00 0.00 74 1017.4
20260503002347 12 318 3.2 9.7 0.00 0.00 0.00 74 1017.4
20260503002142 12 256 4.8 9.7 0.00 0.00 0.00 73 1017.2
20260503001625 13 110 3.2 9.7 0.00 0.00 0.00 73 1017.0
20260503001420 13 100 3.2 9.7 0.00 0.00 0.00 73 1017.0
20260503001214 13 121 1.6 9.7 0.00 0.00 0.00 73 1017.2
20260503001015 13 99 0.0 11.3 0.00 0.00 0.00 73 1017.2
20260503000815 13 129 0.0 11.3 0.00 0.00 0.00 73 1017.3
20260503000605 13 167 0.0 11.3 0.00 0.00 0.00 73 1017.4
20260503000408 13 97 0.0 11.3 0.00 0.00 0.00 72 1017.5
20260503000204 13 122 0.0 11.3 0.00 0.00 0.00 71 1017.5
20260503000001 13 129 1.6 11.3 0.00 0.00 0.00 71 1017.5
20260502235802 13 208 1.6 11.3 0.00 0.00 0.00 71 1017.5
20260502235600 13 146 3.2 11.3 0.00 0.00 0.00 71 1017.6
20260502235354 13 201 3.2 11.3 0.00 0.00 0.00 71 1017.6
20260502235145 13 226 3.2 11.3 0.00 0.00 0.00 71 1017.6
20260502234941 13 210 3.2 8.0 0.00 0.00 0.00 71 1017.6
20260502234732 13 169 3.2 8.0 0.00 0.00 0.00 71 1017.5
20260502234529 13 251 3.2 11.3 0.00 0.00 0.00 71 1017.6
20260502234005 13 201 3.2 11.3 0.00 0.00 0.00 71 1017.6
20260502233757 13 258 3.2 11.3 0.00 0.00 0.00 71 1017.7
20260502233549 13 219 3.2 11.3 0.00 0.00 0.00 71 1017.7
20260502233021 13 224 4.8 11.3 0.00 0.00 0.00 70 1017.8
20260502232811 13 217 4.8 11.3 0.00 0.00 0.00 69 1017.7
20260502232609 13 245 4.8 9.7 0.00 0.00 0.00 69 1017.8
20260502232403 13 231 4.8 9.7 0.00 0.00 0.00 69 1017.8
20260502232153 13 223 4.8 9.7 0.00 0.00 0.00 69 1017.8
20260502231943 13 293 4.8 9.7 0.00 0.00 0.00 69 1017.8
20260502231740 13 226 4.8 14.5 0.00 0.00 0.00 69 1017.8
20260502231220 13 238 4.8 14.5 0.00 0.00 0.00 69 1017.9
20260502231015 13 214 4.8 14.5 0.00 0.00 0.00 68 1017.9
20260502230807 13 226 4.8 14.5 0.00 0.00 0.00 68 1017.9
20260502230603 13 247 6.4 14.5 0.00 0.00 0.00 68 1018.0
20260502230353 13 246 6.4 14.5 0.00 0.00 0.00 68 1018.0
20260502230151 13 278 6.4 14.5 0.00 0.00 0.00 68 1018.0
20260502225941 13 210 6.4 14.5 0.00 0.00 0.00 68 1017.9
20260502225731 13 223 6.4 12.9 0.00 0.00 0.00 68 1018.0
20260502225204 13 222 6.4 11.3 0.00 0.00 0.00 68 1017.9
20260502224955 13 206 4.8 11.3 0.00 0.00 0.00 68 1018.1
20260502224748 13 218 4.8 11.3 0.00 0.00 0.00 68 1018.1
20260502224549 13 227 6.4 11.3 0.00 0.00 0.00 68 1018.1
20260502224343 13 228 4.8 11.3 0.00 0.00 0.00 69 1018.1
20260502224141 13 227 4.8 11.3 0.00 0.00 0.00 69 1018.1
20260502223942 13 252 6.4 11.3 0.00 0.00 0.00 69 1018.0
20260502223737 13 240 4.8 9.7 0.00 0.00 0.00 69 1018.1
20260502223528 13 218 4.8 9.7 0.00 0.00 0.00 70 1018.0
20260502223320 13 211 4.8 11.3 0.00 0.00 0.00 70 1018.1
20260502223120 13 252 4.8 11.3 0.00 0.00 0.00 71 1018.0
20260502222916 13 221 4.8 11.3 0.00 0.00 0.00 72 1018.1
20260502222711 13 219 4.8 11.3 0.00 0.00 0.00 72 1018.0
20260502222503 13 210 4.8 11.3 0.00 0.00 0.00 72 1018.1
20260502222305 13 252 4.8 11.3 0.00 0.00 0.00 72 1018.0
20260502222104 13 207 4.8 11.3 0.00 0.00 0.00 72 1018.0
20260502221857 13 238 4.8 11.3 0.00 0.00 0.00 72 1018.1
20260502221647 13 224 4.8 11.3 0.00 0.00 0.00 72 1018.1
20260502221442 13 193 4.8 11.3 0.00 0.00 0.00 72 1018.1
20260502221233 13 240 4.8 11.3 0.00 0.00 0.00 72 1018.1
20260502221027 13 236 4.8 11.3 0.00 0.00 0.00 72 1018.1
20260502220501 13 245 4.8 11.3 0.00 0.00 0.00 72 1018.2
20260502220254 13 223 6.4 14.5 0.00 0.00 0.00 71 1018.2
20260502220054 13 211 6.4 14.5 0.00 0.00 0.00 71 1018.1
20260502215845 13 231 4.8 14.5 0.00 0.00 0.00 72 1018.2
20260502214957 13 210 4.8 14.5 0.00 0.00 0.00 72 1018.2
20260502214433 13 232 4.8 12.9 0.00 0.00 0.00 73 1018.2
20260502213904 13 235 6.4 14.5 0.00 0.00 0.00 71 1018.2
20260502213656 14 251 6.4 14.5 0.00 0.00 0.00 71 1018.1
20260502213452 14 262 6.4 14.5 0.00 0.00 0.00 71 1018.2
20260502213250 14 229 6.4 14.5 0.00 0.00 0.00 71 1018.2
20260502213049 14 216 6.4 14.5 0.00 0.00 0.00 71 1018.2
20260502212844 14 211 4.8 14.5 0.00 0.00 0.00 71 1018.1
20260502212326 14 234 4.8 14.5 0.00 0.00 0.00 70 1018.2
20260502212119 14 226 4.8 12.9 0.00 0.00 0.00 71 1018.1
20260502211550 14 229 4.8 12.9 0.00 0.00 0.00 70 1018.2
20260502211346 14 214 4.8 12.9 0.00 0.00 0.00 70 1018.4
20260502210507 14 248 4.8 14.5 0.00 0.00 0.00 71 1018.4
20260502205932 14 255 6.4 17.7 0.00 0.00 0.00 71 1018.4
20260502205725 14 259 6.4 17.7 0.00 0.00 0.00 71 1018.4
20260502205517 14 219 6.4 17.7 0.00 0.00 0.00 71 1018.4
20260502205315 14 239 6.4 17.7 0.00 0.00 0.00 71 1018.4
20260502204757 15 244 6.4 17.7 0.00 0.00 0.00 70 1018.3
20260502204548 15 250 6.4 17.7 0.00 0.00 0.00 70 1018.3
20260502204342 15 217 6.4 17.7 0.00 0.00 0.00 70 1018.4
20260502203813 15 233 4.8 14.5 0.00 0.00 0.00 70 1018.4
20260502203610 15 226 4.8 14.5 0.00 0.00 0.00 70 1018.5
20260502203410 15 225 4.8 14.5 0.00 0.00 0.00 71 1018.5
20260502203208 15 234 4.8 14.5 0.00 0.00 0.00 71 1018.5
20260502203005 15 251 4.8 14.5 0.00 0.00 0.00 70 1018.6
20260502202800 15 273 4.8 16.1 0.00 0.00 0.00 70 1018.6
20260502202600 15 245 4.8 16.1 0.00 0.00 0.00 70 1018.6
20260502202355 15 221 4.8 16.1 0.00 0.00 0.00 70 1018.6
20260502202152 15 236 6.4 16.1 0.00 0.00 0.00 70 1018.7
20260502201632 15 231 8.0 16.1 0.00 0.00 0.00 69 1018.6
20260502201428 15 254 8.0 16.1 0.00 0.00 0.00 68 1018.6
20260502201226 15 243 8.0 16.1 0.00 0.00 0.00 68 1018.6
20260502201022 15 228 6.4 16.1 0.00 0.00 0.00 68 1018.5
20260502200814 15 231 6.4 16.1 0.00 0.00 0.00 68 1018.5
20260502200241 15 250 6.4 16.1 0.00 0.00 0.00 67 1018.5
20260502200040 15 205 6.4 16.1 0.00 0.00 0.00 68 1018.4
20260502195834 15 232 4.8 16.1 0.00 0.00 0.00 67 1018.5
20260502195625 15 236 4.8 16.1 0.00 0.00 0.00 67 1018.5
20260502195423 15 233 4.8 16.1 0.00 0.00 0.00 66 1018.4
20260502195223 15 229 4.8 11.3 0.00 0.00 0.00 66 1018.4
20260502194659 15 236 3.2 9.7 0.00 0.00 0.00 65 1018.4
20260502194450 15 228 3.2 9.7 0.00 0.00 0.00 65 1018.5
20260502194250 15 218 1.6 9.7 0.00 0.00 0.00 64 1018.3
20260502194045 15 207 1.6 8.0 0.00 0.00 0.00 64 1018.4
20260502193841 15 256 1.6 8.0 0.00 0.00 0.00 64 1018.4
20260502193642 15 214 1.6 8.0 0.00 0.00 0.00 64 1018.3
20260502193123 15 235 1.6 8.0 0.00 0.00 0.00 63 1018.3
20260502192914 15 222 1.6 8.0 0.00 0.00 0.00 63 1018.3
20260502192712 15 206 1.6 11.3 0.00 0.00 0.00 62 1018.3
20260502192505 15 232 1.6 11.3 0.00 0.00 0.00 62 1018.2
20260502192254 15 215 1.6 11.3 0.00 0.00 0.00 62 1018.3
20260502192050 15 229 1.6 11.3 0.00 0.00 0.00 62 1018.2
20260502191851 15 218 1.6 11.3 0.00 0.00 0.00 62 1018.2
20260502191643 15 237 1.6 11.3 0.00 0.00 0.00 61 1018.2
20260502191443 15 226 1.6 11.3 0.00 0.00 0.00 61 1018.1
20260502191234 15 222 1.6 11.3 0.00 0.00 0.00 61 1018.1
20260502191035 15 213 1.6 11.3 0.00 0.00 0.00 60 1018.1
20260502190827 15 225 1.6 11.3 0.00 0.00 0.00 60 1018.1
20260502190621 15 220 0.0 4.8 0.00 0.00 0.00 60 1018.2
20260502190051 16 236 0.0 3.2 0.00 0.00 0.00 60 1018.2
20260502185849 16 215 0.0 3.2 0.00 0.00 0.00 60 1018.1
20260502185331 16 213 0.0 11.3 0.00 0.00 0.00 60 1018.1
20260502185132 16 215 0.0 11.3 0.00 0.00 0.00 60 1018.0
20260502184927 15 231 0.0 8.0 0.00 0.00 0.00 60 1018.0
20260502184723 15 218 0.0 8.0 0.00 0.00 0.00 60 1018.1
20260502183844 16 223 1.6 11.3 0.00 0.00 0.00 60 1018.1
20260502183637 16 241 1.6 11.3 0.00 0.00 0.00 59 1018.0
20260502183430 16 244 3.2 11.3 0.00 0.00 0.00 59 1018.1
20260502183228 16 256 3.2 11.3 0.00 0.00 0.00 59 1018.1
20260502182703 16 240 3.2 11.3 0.00 0.00 0.00 59 1018.1
20260502182146 16 237 3.2 8.0 0.00 0.00 0.00 57 1017.9
20260502181943 16 229 3.2 8.0 0.00 0.00 0.00 58 1017.9
20260502181734 16 213 3.2 8.0 0.00 0.00 0.00 57 1018.0
20260502181531 16 251 3.2 9.7 0.00 0.00 0.00 57 1018.0
20260502181325 16 210 3.2 9.7 0.00 0.00 0.00 57 1018.0
20260502181120 16 248 3.2 9.7 0.00 0.00 0.00 57 1018.1
20260502180913 16 221 3.2 9.7 0.00 0.00 0.00 57 1018.0
20260502180708 16 245 3.2 9.7 0.00 0.00 0.00 57 1018.0
20260502180504 16 238 3.2 11.3 0.00 0.00 0.00 57 1018.0
20260502180258 16 225 4.8 11.3 0.00 0.00 0.00 57 1017.9
20260502170235 18 203 4.8 11.3 0.00 0.00 0.00 52 1018.3
20260502163923 18 225 4.8 14.5 0.00 0.00 0.00 51 1018.5
20260502163716 18 234 4.8 14.5 0.00 0.00 0.00 50 1018.5
20260502163513 18 231 6.4 14.5 0.00 0.00 0.00 48 1018.5
20260502163312 18 233 6.4 14.5 0.00 0.00 0.00 49 1018.5
20260502163105 18 223 6.4 14.5 0.00 0.00 0.00 46 1018.6
20260502162902 19 240 6.4 14.5 0.00 0.00 0.00 51 1018.6
20260502162658 19 231 6.4 14.5 0.00 0.00 0.00 48 1018.6
20260502162452 19 237 4.8 14.5 0.00 0.00 0.00 48 1018.6
20260502162247 19 233 6.4 14.5 0.00 0.00 0.00 53 1018.6
20260502162043 19 211 6.4 14.5 0.00 0.00 0.00 51 1018.6
20260502161837 19 253 6.4 14.5 0.00 0.00 0.00 55 1018.7
20260502161315 19 250 8.0 14.5 0.00 0.00 0.00 56 1018.7
20260502161104 19 219 6.4 14.5 0.00 0.00 0.00 58 1018.8
20260502160900 19 219 6.4 14.5 0.00 0.00 0.00 58 1018.8
20260502160658 19 222 6.4 14.5 0.00 0.00 0.00 58 1018.8
20260502160457 19 266 6.4 14.5 0.00 0.00 0.00 57 1018.8
20260502152032 20 238 3.2 11.3 0.00 0.00 0.00 62 1018.9
20260502151828 20 258 1.6 11.3 0.00 0.00 0.00 59 1019.0
20260502151622 20 226 1.6 11.3 0.00 0.00 0.00 61 1019.0
20260502151413 20 234 1.6 14.5 0.00 0.00 0.00 60 1019.0
20260502151209 20 241 0.0 14.5 0.00 0.00 0.00 60 1019.0
20260502150637 20 303 1.6 14.5 0.00 0.00 0.00 56 1019.0
20260502150106 20 268 4.8 14.5 0.00 0.00 0.00 58 1019.0
20260502140117 19 313 3.2 9.7 0.00 0.00 0.00 65 1019.9
20260502130734 19 311 1.6 9.7 0.00 0.00 0.00 66 1020.3
20260502130524 19 329 0.0 8.0 0.00 0.00 0.00 66 1020.4
20260502130316 19 305 0.0 8.0 0.00 0.00 0.00 66 1020.3
20260502130115 19 283 0.0 8.0 0.00 0.00 0.00 65 1020.4
20260502123756 19 226 1.6 9.7 0.00 0.00 0.00 65 1020.5
20260502123549 19 255 1.6 9.7 0.00 0.00 0.00 65 1020.6
20260502123339 19 302 1.6 9.7 0.00 0.00 0.00 65 1020.6
20260502123140 19 242 1.6 9.7 0.00 0.00 0.00 65 1020.6
20260502122935 20 298 0.0 9.7 0.00 0.00 0.00 65 1020.7
20260502122726 20 274 0.0 8.0 0.00 0.00 0.00 64 1020.6
20260502122527 20 42 0.0 6.4 0.00 0.00 0.00 63 1020.6
20260502122326 20 287 0.0 6.4 0.00 0.00 0.00 65 1020.8
20260502122121 20 148 0.0 6.4 0.00 0.00 0.00 66 1020.7
20260502121920 20 208 0.0 6.4 0.00 0.00 0.00 66 1020.8
20260502121718 20 269 1.6 6.4 0.00 0.00 0.00 64 1020.8
20260502121513 20 236 1.6 9.7 0.00 0.00 0.00 64 1020.9
20260502121309 20 68 1.6 9.7 0.00 0.00 0.00 66 1020.9
20260502121101 20 228 1.6 9.7 0.00 0.00 0.00 66 1020.9
20260502120852 19 226 1.6 9.7 0.00 0.00 0.00 65 1020.8
20260502120328 19 264 1.6 9.7 0.00 0.00 0.00 64 1021.0
20260502120119 20 306 1.6 9.7 0.00 0.00 0.00 65 1021.0
20260502115556 20 284 0.0 8.0 0.00 0.00 0.00 63 1021.0
20260502115356 20 292 0.0 0.0 0.00 0.00 0.00 63 1021.0
20260502115150 20 292 1.6 6.4 0.00 0.00 0.00 62 1021.1
20260502114945 20 295 1.6 6.4 0.00 0.00 0.00 64 1021.2
20260502114424 20 283 0.0 8.0 0.00 0.00 0.00 62 1021.1
20260502114218 20 252 0.0 8.0 0.00 0.00 0.00 65 1021.0
20260502114015 20 268 0.0 8.0 0.00 0.00 0.00 65 1021.2
20260502113808 20 37 0.0 8.0 0.00 0.00 0.00 66 1021.2
20260502113607 20 79 1.6 8.0 0.00 0.00 0.00 66 1021.2
20260502113037 20 240 1.6 8.0 0.00 0.00 0.00 65 1021.2
20260502112838 20 249 1.6 8.0 0.00 0.00 0.00 66 1021.2
20260502112636 19 51 1.6 8.0 0.00 0.00 0.00 64 1021.3
20260502112431 19 313 0.0 4.8 0.00 0.00 0.00 66 1021.3
20260502112224 19 232 0.0 4.8 0.00 0.00 0.00 66 1021.4
20260502112017 19 285 1.6 4.8 0.00 0.00 0.00 64 1021.3
20260502111815 19 281 1.6 8.0 0.00 0.00 0.00 65 1021.5
20260502111611 19 280 1.6 8.0 0.00 0.00 0.00 64 1021.5
20260502111400 19 217 1.6 8.0 0.00 0.00 0.00 65 1021.6
20260502111155 19 237 1.6 8.0 0.00 0.00 0.00 65 1021.5
20260502110953 19 270 1.6 8.0 0.00 0.00 0.00 66 1021.5
20260502110743 19 256 1.6 8.0 0.00 0.00 0.00 68 1021.5
20260502110535 19 84 0.0 8.0 0.00 0.00 0.00 66 1021.5
20260502110331 19 169 0.0 8.0 0.00 0.00 0.00 67 1021.6
20260502110122 19 240 0.0 8.0 0.00 0.00 0.00 65 1021.6
20260502105922 19 283 0.0 6.4 0.00 0.00 0.00 66 1021.7
20260502105717 18 277 1.6 6.4 0.00 0.00 0.00 65 1021.6
20260502105516 18 276 1.6 6.4 0.00 0.00 0.00 66 1021.6
20260502104943 18 58 1.6 6.4 0.00 0.00 0.00 66 1021.7
20260502104742 18 259 1.6 6.4 0.00 0.00 0.00 66 1021.6
20260502104541 18 284 0.0 6.4 0.00 0.00 0.00 67 1021.7
20260502104019 18 297 0.0 6.4 0.00 0.00 0.00 66 1021.7
20260502103819 18 295 0.0 4.8 0.00 0.00 0.00 67 1021.8
20260502103611 18 222 0.0 4.8 0.00 0.00 0.00 66 1021.7
20260502103405 18 319 1.6 9.7 0.00 0.00 0.00 68 1021.7
20260502103155 18 251 0.0 9.7 0.00 0.00 0.00 67 1021.7
20260502102953 18 213 0.0 9.7 0.00 0.00 0.00 67 1021.8
20260502102755 18 216 1.6 9.7 0.00 0.00 0.00 71 1021.8
20260502102233 18 278 1.6 9.7 0.00 0.00 0.00 68 1021.8
20260502102025 18 297 1.6 9.7 0.00 0.00 0.00 67 1021.9
20260502101409 18 278 1.6 4.8 0.00 0.00 0.00 68 1022.0
20260502101207 18 302 1.6 6.4 0.00 0.00 0.00 68 1021.9
20260502101004 18 282 0.0 6.4 0.00 0.00 0.00 69 1021.9
20260502100804 17 269 0.0 6.4 0.00 0.00 0.00 69 1022.0
20260502100556 17 269 1.6 6.4 0.00 0.00 0.00 68 1022.0
20260502100352 17 314 1.6 9.7 0.00 0.00 0.00 66 1022.1
20260502100147 17 281 1.6 9.7 0.00 0.00 0.00 67 1022.1
20260502091407 17 272 1.6 6.4 0.00 0.00 0.00 68 1022.5
20260502091201 17 309 1.6 6.4 0.00 0.00 0.00 66 1022.5
20260502090957 17 281 0.0 4.8 0.00 0.00 0.00 68 1022.5
20260502090754 17 305 0.0 4.8 0.00 0.00 0.00 67 1022.5
20260502090553 17 288 0.0 4.8 0.00 0.00 0.00 66 1022.6
20260502090351 17 238 0.0 4.8 0.00 0.00 0.00 68 1022.6
20260502090150 17 289 0.0 4.8 0.00 0.00 0.00 67 1022.6
20260502071347 14 264 3.2 6.4 0.00 0.00 0.00 74 1023.0
20260502071146 14 221 3.2 9.7 0.00 0.00 0.00 74 1023.1
20260502070935 14 248 3.2 9.7 0.00 0.00 0.00 74 1023.0
20260502070734 14 240 3.2 9.7 0.00 0.00 0.00 75 1023.0
20260502070530 14 238 3.2 9.7 0.00 0.00 0.00 75 1023.0
20260502070330 13 219 3.2 9.7 0.00 0.00 0.00 74 1023.1
20260502070126 13 244 3.2 9.7 0.00 0.00 0.00 76 1023.1
20260502065917 13 258 3.2 9.7 0.00 0.00 0.00 75 1023.2
20260502065711 13 243 3.2 9.7 0.00 0.00 0.00 75 1023.1
20260502065501 13 235 3.2 9.7 0.00 0.00 0.00 73 1023.0
20260502065258 13 239 3.2 8.0 0.00 0.00 0.00 75 1023.0
20260502065052 13 236 3.2 8.0 0.00 0.00 0.00 75 1023.0
20260502064844 13 241 3.2 8.0 0.00 0.00 0.00 76 1023.1
20260502064314 13 238 1.6 8.0 0.00 0.00 0.00 75 1023.0
20260502063749 13 241 0.0 8.0 0.00 0.00 0.00 76 1023.0
20260502063547 13 227 1.6 8.0 0.00 0.00 0.00 76 1022.9
20260502063018 13 264 3.2 8.0 0.00 0.00 0.00 76 1023.0
20260502062813 13 236 3.2 8.0 0.00 0.00 0.00 76 1023.0
20260502062253 13 225 1.6 8.0 0.00 0.00 0.00 75 1023.1
20260502062046 13 222 1.6 8.0 0.00 0.00 0.00 75 1023.1
20260502061841 13 218 3.2 8.0 0.00 0.00 0.00 76 1023.0
20260502061640 13 232 1.6 8.0 0.00 0.00 0.00 74 1023.1
20260502061237 13 232 3.2 8.0 0.00 0.00 0.00 76 1023.0
20260502060722 13 222 3.2 11.3 0.00 0.00 0.00 77 1023.1
20260502060515 13 217 3.2 11.3 0.00 0.00 0.00 76 1023.2
20260502060310 13 240 1.6 11.3 0.00 0.00 0.00 77 1023.0